GW5979 Weather Reports


time (UTC)temp
C
wind
direction
speed
KPH
gust
KPH
rain 1hr
cm
rain 24hr
cm
rain mn
cm
humidity
%
barometer
mb
20260507212206 17 285 3.2 19.3 0.00 0.00 0.00 27 1012.8
20260507211703 18 354 14.5 22.5 0.00 0.00 0.00 26 1012.8
20260507211158 17 334 8.0 14.5 0.00 0.00 0.00 27 1012.9
20260507210656 18 173 6.4 11.3 0.00 0.00 0.00 26 1013.1
20260507210152 18 334 3.2 19.3 0.00 0.00 0.00 27 1013.0
20260507205649 18 212 1.6 20.9 0.00 0.00 0.00 27 1013.4
20260507205146 18 277 6.4 17.7 0.00 0.00 0.00 26 1013.4
20260507204642 18 224 3.2 14.5 0.00 0.00 0.00 28 1012.9
20260507204140 18 333 9.7 11.3 0.00 0.00 0.00 26 1013.4
20260507203637 17 311 11.3 29.0 0.00 0.00 0.00 28 1013.5
20260507203135 17 283 8.0 17.7 0.00 0.00 0.00 27 1013.5
20260507202630 17 309 8.0 16.1 0.00 0.00 0.00 28 1013.8
20260507202127 18 282 3.2 14.5 0.00 0.00 0.00 27 1013.8
20260507201622 18 240 9.7 14.5 0.00 0.00 0.00 27 1013.9
20260507201119 17 287 9.7 19.3 0.00 0.00 0.00 28 1013.8
20260507200615 17 291 6.4 12.9 0.00 0.00 0.00 28 1014.0
20260507200111 17 311 6.4 24.1 0.00 0.00 0.00 28 1013.9
20260507195608 17 318 12.9 29.0 0.00 0.00 0.00 27 1014.0
20260507195106 18 321 4.8 11.3 0.00 0.00 0.00 26 1013.9
20260507194602 18 305 11.3 19.3 0.00 0.00 0.00 26 1014.0
20260507194057 17 293 6.4 12.9 0.00 0.00 0.00 27 1014.1
20260507193555 17 336 6.4 17.7 0.00 0.00 0.00 27 1014.4
20260507193052 17 344 19.3 20.9 0.00 0.00 0.00 26 1014.0
20260507192548 17 0 12.9 20.9 0.00 0.00 0.00 26 1014.1
20260507192045 17 316 6.4 20.9 0.00 0.00 0.00 25 1014.1
20260507191540 18 15 12.9 14.5 0.00 0.00 0.00 23 1014.1
20260507191038 18 281 11.3 12.9 0.00 0.00 0.00 24 1014.1
20260507190535 17 327 4.8 9.7 0.00 0.00 0.00 26 1014.5
20260507190034 17 239 9.7 25.7 0.00 0.00 0.00 24 1014.3
20260507185531 18 207 1.6 6.4 0.00 0.00 0.00 23 1014.6
20260507185028 18 228 3.2 8.0 0.00 0.00 0.00 25 1014.4
20260507184526 17 314 4.8 8.0 0.00 0.00 0.00 24 1014.6
20260507184024 17 199 6.4 8.0 0.00 0.00 0.00 23 1014.5
20260507183519 17 174 6.4 12.9 0.00 0.00 0.00 23 1014.5
20260507183017 17 196 6.4 9.7 0.00 0.00 0.00 23 1014.5
20260507182513 16 258 9.7 12.9 0.00 0.00 0.00 25 1014.5
20260507182009 17 179 3.2 8.0 0.00 0.00 0.00 23 1014.5
20260507181506 17 193 6.4 9.7 0.00 0.00 0.00 22 1014.5
20260507181002 16 160 8.0 9.7 0.00 0.00 0.00 22 1014.9
20260507180458 16 328 3.2 9.7 0.00 0.00 0.00 23 1014.9
20260507175955 17 324 3.2 4.8 0.00 0.00 0.00 22 1015.1
20260507175452 17 356 3.2 8.0 0.00 0.00 0.00 23 1015.0
20260507174949 16 215 9.7 11.3 0.00 0.00 0.00 22 1015.0
20260507174446 16 317 8.0 11.3 0.00 0.00 0.00 24 1015.0
20260507173943 16 283 6.4 14.5 0.00 0.00 0.00 23 1015.2
20260507173440 16 92 0.0 12.9 0.00 0.00 0.00 22 1015.0
20260507172938 16 335 6.4 14.5 0.00 0.00 0.00 20 1015.5
20260507172434 16 291 0.0 4.8 0.00 0.00 0.00 24 1015.2
20260507171930 15 17 4.8 11.3 0.00 0.00 0.00 22 1015.2
20260507171426 16 333 3.2 6.4 0.00 0.00 0.00 20 1015.7
20260507170924 16 317 6.4 14.5 0.00 0.00 0.00 23 1015.5
20260507170420 17 335 0.0 6.4 0.00 0.00 0.00 23 1015.4
20260507165917 16 343 8.0 8.0 0.00 0.00 0.00 21 1015.6
20260507165413 16 299 8.0 12.9 0.00 0.00 0.00 21 1015.6
20260507164908 15 297 4.8 6.4 0.00 0.00 0.00 24 1015.4
20260507164406 15 330 9.7 14.5 0.00 0.00 0.00 22 1015.8
20260507163903 16 302 3.2 8.0 0.00 0.00 0.00 25 1015.6
20260507163400 15 221 3.2 8.0 0.00 0.00 0.00 24 1015.6
20260507162857 15 329 3.2 12.9 0.00 0.00 0.00 25 1015.6
20260507162352 15 320 6.4 9.7 0.00 0.00 0.00 24 1015.7
20260507161850 16 39 1.6 8.0 0.00 0.00 0.00 25 1015.6
20260507161346 15 231 4.8 8.0 0.00 0.00 0.00 27 1015.6
20260507160843 14 283 4.8 9.7 0.00 0.00 0.00 28 1015.7
20260507160338 14 336 6.4 9.7 0.00 0.00 0.00 28 1016.1
20260507155835 14 285 3.2 8.0 0.00 0.00 0.00 27 1016.0
20260507155330 13 266 3.2 17.7 0.00 0.00 0.00 28 1015.8
20260507154827 14 319 6.4 9.7 0.00 0.00 0.00 28 1016.1
20260507154325 14 47 3.2 8.0 0.00 0.00 0.00 30 1016.0
20260507153821 14 73 3.2 12.9 0.00 0.00 0.00 30 1015.7
20260507153318 12 16 4.8 14.5 0.00 0.00 0.00 32 1015.7
20260507152815 12 319 6.4 11.3 0.00 0.00 0.00 31 1016.0
20260507152311 12 316 8.0 20.9 0.00 0.00 0.00 33 1015.8
20260507151807 12 302 6.4 12.9 0.00 0.00 0.00 32 1016.1
20260507151303 12 314 4.8 14.5 0.00 0.00 0.00 33 1015.7
20260507150800 11 299 11.3 14.5 0.00 0.00 0.00 34 1015.7
20260507150257 11 310 6.4 12.9 0.00 0.00 0.00 34 1016.0
20260507145753 11 335 6.4 17.7 0.00 0.00 0.00 35 1015.7
20260507145250 11 307 9.7 9.7 0.00 0.00 0.00 35 1016.2
20260507144747 11 320 9.7 14.5 0.00 0.00 0.00 35 1016.0
20260507144244 11 259 6.4 14.5 0.00 0.00 0.00 37 1016.0
20260507143740 11 79 4.8 9.7 0.00 0.00 0.00 37 1016.0
20260507143238 11 357 3.2 4.8 0.00 0.00 0.00 36 1016.0
20260507142734 10 327 4.8 12.9 0.00 0.00 0.00 37 1016.0
20260507142230 10 333 6.4 12.9 0.00 0.00 0.00 36 1016.1
20260507141727 10 340 8.0 11.3 0.00 0.00 0.00 37 1016.1
20260507141224 10 311 3.2 6.4 0.00 0.00 0.00 38 1016.1
20260507140720 9 321 3.2 6.4 0.00 0.00 0.00 38 1016.2
20260507140218 8 0 3.2 9.7 0.00 0.00 0.00 38 1016.1
20260507135714 8 323 4.8 9.7 0.00 0.00 0.00 38 1016.3
20260507135212 8 316 3.2 8.0 0.00 0.00 0.00 39 1016.2
20260507134708 8 329 4.8 4.8 0.00 0.00 0.00 40 1016.0
20260507134204 7 344 3.2 8.0 0.00 0.00 0.00 41 1016.0
20260507133700 7 347 3.2 6.4 0.00 0.00 0.00 42 1015.8
20260507133158 7 5 1.6 4.8 0.00 0.00 0.00 43 1015.8
20260507132655 7 334 6.4 6.4 0.00 0.00 0.00 45 1015.8
20260507132151 6 359 3.2 9.7 0.00 0.00 0.00 45 1015.7
20260507131648 5 349 3.2 6.4 0.00 0.00 0.00 48 1016.0
20260507131146 5 342 8.0 8.0 0.00 0.00 0.00 48 1015.7
20260507130642 5 336 3.2 6.4 0.00 0.00 0.00 50 1015.6
20260507130140 4 9 6.4 6.4 0.00 0.00 0.00 51 1015.6
20260507125638 4 354 3.2 3.2 0.00 0.00 0.00 50 1015.6
20260507125136 5 358 1.6 3.2 0.00 0.00 0.00 50 1015.6
20260507124632 4 84 1.6 3.2 0.00 0.00 0.00 53 1015.6
20260507124130 3 23 0.0 3.2 0.00 0.00 0.00 53 1015.6
20260507123628 2 13 3.2 6.4 0.00 0.00 0.00 54 1015.6
20260507123125 2 314 3.2 4.8 0.00 0.00 0.00 55 1015.5
20260507122620 2 44 0.0 3.2 0.00 0.00 0.00 57 1015.4
20260507122116 1 30 1.6 4.8 0.00 0.00 0.00 58 1015.1
20260507121612 1 11 6.4 8.0 0.00 0.00 0.00 57 1015.4
20260507121108 1 14 3.2 6.4 0.00 0.00 0.00 56 1015.2
20260507120604 1 41 1.6 4.8 0.00 0.00 0.00 55 1015.0
20260507120101 1 352 3.2 6.4 0.00 0.00 0.00 54 1015.2
20260507115557 2 343 4.8 8.0 0.00 0.00 0.00 53 1015.4
20260507115053 1 334 4.8 8.0 0.00 0.00 0.00 54 1015.2
20260507114549 1 24 3.2 6.4 0.00 0.00 0.00 55 1015.4
20260507114046 1 352 3.2 6.4 0.00 0.00 0.00 56 1015.5
20260507113543 1 346 4.8 9.7 0.00 0.00 0.00 56 1015.4
20260507113041 1 12 3.2 8.0 0.00 0.00 0.00 57 1015.4
20260507112538 1 28 3.2 8.0 0.00 0.00 0.00 57 1015.4
20260507112035 0 2 0.0 4.8 0.00 0.00 0.00 58 1015.5
20260507111532 1 30 3.2 9.7 0.00 0.00 0.00 58 1015.4
20260507111029 1 5 3.2 4.8 0.00 0.00 0.00 59 1015.2
20260507110525 1 0 6.4 6.4 0.00 0.00 0.00 59 1015.2
20260507110021 0 8 6.4 8.0 0.00 0.00 0.00 60 1015.4
20260507105519 0 19 4.8 6.4 0.00 0.00 0.00 62 1015.2
20260507105014 0 359 3.2 6.4 0.00 0.00 0.00 62 1015.5
20260507104513 0 11 3.2 4.8 0.00 0.00 0.00 63 1015.4
20260507104008 0 2 3.2 4.8 0.00 0.00 0.00 62 1015.4
20260507103505 0 1 0.0 8.0 0.00 0.00 0.00 61 1015.4
20260507103001 0 6 3.2 4.8 0.00 0.00 0.00 61 1015.5
20260507102458 0 329 3.2 6.4 0.00 0.00 0.00 63 1015.4
20260507101954 0 13 3.2 6.4 0.00 0.00 0.00 63 1015.6
20260507101449 0 355 3.2 6.4 0.00 0.00 0.00 64 1015.6
20260507100946 0 0 0.0 3.2 0.00 0.00 0.00 66 1015.6
20260507100444 0 9 3.2 4.8 0.00 0.00 0.00 67 1015.7
20260507095942 0 24 0.0 3.2 0.00 0.00 0.00 69 1015.7
20260507095439 0 1 4.8 4.8 0.00 0.00 0.00 71 1015.6
20260507094936 0 135 0.0 3.2 0.00 0.00 0.00 69 1015.5
20260507094431 0 44 0.0 6.4 0.00 0.00 0.00 68 1015.5
20260507093929 0 336 1.6 4.8 0.00 0.00 0.00 69 1015.6
20260507093427 0 9 3.2 4.8 0.00 0.00 0.00 70 1015.6
20260507092925 0 324 1.6 4.8 0.00 0.00 0.00 72 1015.7
20260507092421 0 28 0.0 3.2 0.00 0.00 0.00 72 1015.7
20260507091918 0 7 3.2 4.8 0.00 0.00 0.00 71 1015.6
20260507091414 0 291 1.6 6.4 0.00 0.00 0.00 72 1015.6
20260507090910 0 19 4.8 9.7 0.00 0.00 0.00 74 1015.8
20260507090406 0 355 3.2 6.4 0.00 0.00 0.00 75 1015.5
20260507085903 0 3 6.4 9.7 0.00 0.00 0.00 76 1015.6
20260507085400 0 346 4.8 6.4 0.00 0.00 0.00 78 1015.7
20260507084857 0 347 4.8 9.7 0.00 0.00 0.00 80 1015.8
20260507084354 -1 22 3.2 9.7 0.00 0.00 0.00 82 1016.0
20260507083851 -1 340 1.6 4.8 0.00 0.00 0.00 83 1015.8
20260507083347 -1 355 1.6 4.8 0.00 0.00 0.00 85 1015.8
20260507082844 -1 10 8.0 8.0 0.00 0.00 0.00 92 1016.1
20260507082339 -2 5 3.2 6.4 0.00 0.00 0.00 95 1016.2
20260507081837 -2 39 1.6 3.2 0.00 0.00 0.00 96 1016.3
20260507081333 -2 61 0.0 4.8 0.00 0.00 0.00 96 1016.1
20260507080830 -2 14 3.2 3.2 0.00 0.00 0.00 96 1016.3
20260507080326 -2 28 4.8 4.8 0.00 0.00 0.00 96 1016.3
20260507075821 -2 99 0.0 3.2 0.00 0.00 0.00 96 1016.3
20260507075318 -2 6 3.2 3.2 0.00 0.00 0.00 96 1016.3
20260507074814 -2 163 3.2 3.2 0.00 0.00 0.00 96 1016.5
20260507074312 -2 150 1.6 3.2 0.00 0.00 0.00 96 1016.6
20260507073809 -2 44 1.6 3.2 0.00 0.00 0.00 96 1016.7
20260507073306 -2 9 1.6 3.2 0.00 0.00 0.00 96 1016.7
20260507072803 -2 30 3.2 6.4 0.00 0.00 0.00 96 1016.6
20260507072300 -2 34 4.8 4.8 0.00 0.00 0.00 96 1016.6
20260507071757 -2 116 0.0 3.2 0.00 0.00 0.00 96 1016.8
20260507071254 -2 77 0.0 3.2 0.00 0.00 0.00 96 1016.8
20260507070751 -2 113 1.6 3.2 0.00 0.00 0.00 96 1016.8
20260507070248 -2 57 3.2 3.2 0.00 0.00 0.00 96 1016.6
20260507065744 -2 124 0.0 1.6 0.00 0.00 0.00 96 1016.8
20260507065241 -2 57 1.6 3.2 0.00 0.00 0.00 96 1016.7
20260507064738 -2 123 1.6 3.2 0.00 0.00 0.00 96 1016.8
20260507064237 -1 123 3.2 4.8 0.00 0.00 0.00 96 1016.9
20260507063734 -1 42 4.8 6.4 0.00 0.00 0.00 96 1016.9
20260507063231 -1 19 3.2 6.4 0.00 0.00 0.00 96 1016.8
20260507062728 -1 55 3.2 6.4 0.00 0.00 0.00 96 1017.1
20260507062225 -1 41 3.2 4.8 0.00 0.00 0.00 96 1016.8
20260507061723 -1 68 3.2 6.4 0.00 0.00 0.00 96 1016.7
20260507061221 -1 118 3.2 4.8 0.00 0.00 0.00 96 1016.6
20260507060719 -2 85 3.2 3.2 0.00 0.00 0.00 96 1016.8
20260507060215 -2 127 3.2 3.2 0.00 0.00 0.00 96 1016.8
20260507055711 -1 115 3.2 3.2 0.00 0.03 0.03 96 1016.9
20260507055207 -1 11 3.2 4.8 0.00 0.03 0.03 96 1016.7
20260507054703 -1 66 3.2 4.8 0.00 0.03 0.03 96 1016.5
20260507054159 -1 54 3.2 3.2 0.00 0.03 0.03 96 1016.7
20260507053658 -1 54 3.2 3.2 0.00 0.03 0.03 96 1016.8
20260507053156 -1 35 0.0 3.2 0.00 0.03 0.03 96 1016.6
20260507052654 -1 84 3.2 4.8 0.00 0.03 0.03 96 1016.6
20260507052150 -1 124 3.2 4.8 0.00 0.03 0.03 95 1016.6
20260507051647 -1 78 3.2 3.2 0.00 0.03 0.03 95 1016.6
20260507051144 -1 55 3.2 4.8 0.00 0.03 0.03 95 1016.7
20260507050641 -1 113 1.6 4.8 0.00 0.03 0.03 95 1016.6
20260507050138 -1 74 3.2 4.8 0.00 0.03 0.03 95 1016.6
20260507045634 -1 101 3.2 4.8 0.00 0.03 0.03 95 1016.3
20260507045131 -1 57 1.6 3.2 0.00 0.03 0.03 95 1016.6
20260507044628 -1 128 3.2 6.4 0.00 0.03 0.03 95 1016.6
20260507044125 -1 80 3.2 3.2 0.00 0.03 0.03 95 1016.6
20260507043621 -1 101 1.6 4.8 0.00 0.03 0.03 95 1016.7
20260507043118 -1 98 4.8 4.8 0.00 0.03 0.03 95 1016.8
20260507042614 -1 103 3.2 3.2 0.00 0.03 0.03 95 1016.5
20260507042110 -1 122 4.8 8.0 0.00 0.03 0.03 95 1016.7
20260507041607 -1 100 4.8 4.8 0.00 0.03 0.03 95 1016.7
20260507041104 -1 86 3.2 3.2 0.00 0.03 0.03 95 1016.7
20260507040600 -1 145 4.8 6.4 0.00 0.03 0.03 95 1016.6
20260507040057 0 118 3.2 6.4 0.00 0.03 0.03 95 1016.6
20260507035553 0 105 6.4 9.7 0.00 0.03 0.03 94 1016.7
20260507035049 0 120 3.2 9.7 0.00 0.03 0.03 94 1016.8
20260507034546 0 151 1.6 8.0 0.00 0.03 0.03 94 1016.7
20260507034044 0 126 4.8 8.0 0.00 0.03 0.03 94 1016.5
20260507033542 0 116 3.2 8.0 0.00 0.03 0.03 94 1016.7
20260507033038 0 164 3.2 6.4 0.00 0.03 0.03 93 1016.6
20260507032535 0 130 6.4 9.7 0.00 0.03 0.03 93 1016.7
20260507032032 0 108 1.6 8.0 0.00 0.03 0.03 92 1016.7
20260507031528 0 144 1.6 8.0 0.00 0.03 0.03 91 1016.3
20260507031026 0 151 6.4 8.0 0.00 0.03 0.03 90 1016.6
20260507030522 0 154 3.2 4.8 0.00 0.03 0.03 88 1016.5
20260507030020 0 146 4.8 9.7 0.00 0.03 0.03 87 1016.3
20260507025516 0 157 4.8 9.7 0.00 0.03 0.03 86 1016.3
20260507025014 0 160 3.2 6.4 0.00 0.03 0.03 85 1016.2
20260507024512 0 160 3.2 6.4 0.00 0.03 0.03 85 1016.3
20260507024008 0 180 6.4 8.0 0.00 0.03 0.03 85 1016.3
20260507023504 0 119 1.6 9.7 0.00 0.03 0.03 84 1016.3
20260507023002 0 162 3.2 11.3 0.00 0.03 0.03 84 1016.2
20260507022459 0 166 8.0 8.0 0.00 0.03 0.03 84 1016.2
20260507021954 0 166 9.7 9.7 0.00 0.03 0.03 84 1016.3
20260507021450 0 164 11.3 11.3 0.00 0.03 0.03 84 1016.0
20260507020947 1 180 4.8 11.3 0.00 0.03 0.03 83 1016.2
20260507020444 1 173 8.0 9.7 0.00 0.03 0.03 81 1016.1
20260507015941 1 159 8.0 11.3 0.00 0.03 0.03 80 1016.1
20260507015439 1 191 9.7 12.9 0.00 0.03 0.03 79 1016.0
20260507014936 1 168 6.4 11.3 0.00 0.03 0.03 79 1016.0
20260507014433 1 185 4.8 11.3 0.00 0.03 0.03 79 1016.0
20260507013929 1 167 9.7 11.3 0.00 0.03 0.03 79 1016.1
20260507013426 1 208 4.8 11.3 0.00 0.03 0.03 79 1015.8
20260507012923 1 164 8.0 9.7 0.00 0.03 0.03 78 1016.0
20260507012420 1 174 8.0 9.7 0.00 0.03 0.03 78 1016.1
20260507011917 1 152 6.4 12.9 0.00 0.03 0.03 77 1015.8
20260507011414 1 137 6.4 8.0 0.00 0.03 0.03 77 1016.2
20260507010913 1 154 3.2 9.7 0.00 0.03 0.03 77 1016.0
20260507010409 1 157 11.3 12.9 0.00 0.03 0.03 77 1016.0
20260507005906 1 142 4.8 9.7 0.00 0.03 0.03 76 1015.8
20260507005403 1 173 8.0 11.3 0.00 0.03 0.03 76 1016.1
20260507004900 1 144 6.4 14.5 0.00 0.03 0.03 76 1016.0
20260507004357 2 165 4.8 12.9 0.00 0.03 0.03 75 1015.7
20260507003854 2 175 9.7 14.5 0.00 0.03 0.03 75 1015.7
20260507003349 2 89 3.2 11.3 0.00 0.03 0.03 73 1015.6
20260507002844 2 199 6.4 16.1 0.00 0.03 0.03 73 1015.7
20260507002341 2 154 4.8 11.3 0.00 0.03 0.03 73 1015.6
20260507001838 2 153 9.7 12.9 0.00 0.03 0.03 70 1015.7
20260507001335 2 147 9.7 16.1 0.00 0.03 0.03 69 1015.7
20260507000831 2 164 6.4 14.5 0.00 0.03 0.03 69 1015.6
20260507000328 2 162 9.7 14.5 0.00 0.03 0.03 69 1015.7
20260506235824 2 151 8.0 14.5 0.00 0.03 0.03 69 1015.8
20260506235320 2 178 6.4 9.7 0.00 0.03 0.03 69 1015.6
20260506234816 3 169 6.4 11.3 0.00 0.03 0.03 68 1015.7
20260506234314 3 184 8.0 12.9 0.00 0.03 0.03 67 1015.5
20260506233812 3 172 9.7 12.9 0.00 0.03 0.03 68 1015.7
20260506233307 2 177 6.4 11.3 0.00 0.03 0.03 69 1015.6
20260506232805 3 168 4.8 14.5 0.00 0.03 0.03 67 1015.7
20260506232300 3 145 4.8 8.0 0.00 0.03 0.03 67 1015.6
20260506231757 3 162 3.2 19.3 0.00 0.03 0.03 66 1015.7
20260506231255 3 166 3.2 8.0 0.00 0.03 0.03 65 1015.7
20260506230752 3 160 4.8 4.8 0.00 0.03 0.03 63 1015.7
20260506230249 3 100 3.2 8.0 0.00 0.03 0.03 65 1015.5
20260506225745 3 203 1.6 4.8 0.00 0.03 0.03 66 1015.6
20260506225242 3 267 3.2 6.4 0.00 0.03 0.03 65 1015.6
20260506224738 3 168 8.0 9.7 0.00 0.03 0.03 63 1015.4
20260506224236 3 240 3.2 3.2 0.00 0.03 0.03 63 1015.5
20260506223732 3 208 0.0 3.2 0.00 0.03 0.03 65 1015.6
20260506223228 3 7 3.2 6.4 0.00 0.03 0.03 64 1015.5
20260506222725 3 330 3.2 6.4 0.00 0.03 0.03 65 1015.7
20260506222220 3 190 1.6 4.8 0.00 0.03 0.03 63 1015.5
20260506221719 3 160 4.8 4.8 0.00 0.03 0.03 64 1015.5
20260506221217 3 185 0.0 4.8 0.00 0.03 0.03 67 1015.7
20260506220714 3 268 1.6 8.0 0.00 0.03 0.03 63 1015.5
20260506220208 3 269 0.0 3.2 0.00 0.03 0.03 63 1015.7
20260506215705 2 11 4.8 8.0 0.00 0.03 0.03 67 1015.5
20260506215200 2 12 6.4 6.4 0.00 0.03 0.03 68 1015.6
20260506214657 2 4 4.8 11.3 0.00 0.03 0.03 70 1015.8
20260506214155 2 0 9.7 12.9 0.00 0.03 0.03 68 1015.8
20260506213653 2 359 9.7 9.7 0.00 0.03 0.03 67 1015.8
20260506213150 2 322 6.4 11.3 0.00 0.03 0.03 68 1015.8
20260506212647 4 297 3.2 8.0 0.00 0.03 0.03 66 1015.6